Regional Weather Roundup
Issued by NWS State College, PA

Home | Current Version | Previous Version | Graphics & Text | Print | Product List | Glossary On
Versions: 1 2 3 4 5 6 7 8 9 10 11 12 13 14 15 16 17 18 19 20 21 22 23 24 25 26 27 28 29 30 31 32 33 34 35 36 37 38 39 40 41 42 43 44 45 46 47 48 49 50
000
ASUS41 KCTP 162303
RWRCTP

REGIONAL WEATHER ROUNDUP
NATIONAL WEATHER SERVICE STATE COLLEGE PA
700 PM EDT TUE SEP 16 2014

Note: "fair" indicates few or no clouds below 12,000 feet with no
significant weather and/or obstructions to visibility.

* = STATION THAT DOES NOT REPORT PRECIPITATION /E.G. RAIN...SNOW...ETC/
    THUNDER OR FOG.

PAZ002>004-007>009-013>016-020>023-029>032-170000-
WESTERN PENNSYLVANIA

CITY           SKY/WX    TMP DP  RH WIND       PRES   REMARKS
ERIE           CLEAR     62  44  51 W3        30.08S
MEADVILLE      CLEAR     59  46  62 N3        30.09R
FRANKLIN*      CLEAR     59  45  58 NW5       30.09S
NEW CASTLE     FAIR      62  52  70 CALM      30.08S
BEAVER COUNTY  CLEAR     63  48  59 CALM      30.07S
BUTLER*        CLEAR     63  50  63 CALM      30.09S
PITTSBURGH INT PTCLDY    63  50  62 W5        30.06F
PITTSBURGH     CLEAR     64  44  48 NW5       30.06S
INDIANA*       CLEAR     63  50  63 NW3       30.10S
LATROBE        PTCLDY    64  52  63 CALM      30.07F
WASHINGTON CO* CLEAR     61  54  77 CALM      30.08S
$$

PAZ004>006-010>012-017>019-024>028-033>037-041-042-045-046-049>053-170000-
CENTRAL PENNSYLVANIA

CITY           SKY/WX    TMP DP  RH WIND       PRES   REMARKS
BRADFORD       CLEAR     56  42  59 NW8       30.08R
DUBOIS         PTCLDY    58  48  69 NW5       30.06S
CLEARFIELD     PTCLDY    61  49  64 W5        30.06S
JOHNSTOWN      CLEAR     57  46  66 W3        30.07F
ALTOONA        CLEAR     61  48  62 NW3       30.06S
STATE COLLEGE  CLEAR     63  46  55 NW6       30.04S
WILLIAMSPORT   CLEAR     66  47  50 NW3       30.01R
SELINSGROVE    CLEAR     59  55  87 CALM      30.02S
FT INDIANTOWN  CLEAR     63  57  80 NW2       30.02S
CAPITAL CITY   MOCLDY    69  49  48 N5        30.02R
HARRISBURG     MOCLDY    69  50  50 NE6       30.01R
YORK           CLOUDY    67  50  54 N5        30.02S
$$

PAZ038>040-043-044-047-048-054-055-060>062-067>071-170000-
EASTERN PENNSYLVANIA

CITY           SKY/WX    TMP DP  RH WIND       PRES   REMARKS
SCRANTON       CLEAR     61  48  62 N6        30.02S
MOUNT POCONO   CLEAR     57  48  72 N5        30.03S
ALLENTOWN      PTCLDY    64  47  53 N6        30.01R
QUAKERTOWN*    CLOUDY    64  50  59 N5        30.02R
READING        MOCLDY    67  51  56 NW7       30.01R
LANCASTER      CLOUDY    67  50  54 NE3       30.01S
COATESVILLE    PTCLDY    64  54  68 N5        30.02S
POTTSTOWN      CLOUDY    65  51  60 N5        30.02R
BLUE BELL      MOCLDY    64  55  72 CALM      29.99S
DOYLESTOWN     MOCLDY    64  52  64 N5        30.00R
WILLOW GROVE   NOT AVBL
NORTH PHILA    PTCLDY    69  49  48 N7        30.01R
PHILADELPHIA   PTCLDY    70  51  51 N9        29.99S
$$


USA.gov is the U.S. government's official web portal to all federal, state and local government web resources and services.